Find Starlink 5383

NORAD ID: 54827 Int'l Des: 2022-177 Owner: SPXS Country: US Constellation: starlink operational
LEOCIRCULAR

Live Position

Loading 3D Globe...

About Starlink 5383

Description loading...

Upcoming Passes

Passes for default location (London). Set your location on the main map for personalized predictions.

Altitude History

Loading altitude history...

Two-Line Element Set

1 54827U 22177H 26121.66718183 .00000656 00000-0 33366-4 0 9999
2 54827 43.0021 197.0415 0001795 286.3587 73.7067 15.27580131185025
Epoch: May 1, 2026 • Age: 9 hours

Current Status

Altitude 490.7 km
Velocity 7.62 km/s
Sub-Earth Point -31.97°S, 84.94°W
Launch Date Dec 28, 2022
Age 3.3 years
Type internet

Technical Details

Classification Payload
Mass 305.00 kg
Dry Mass 290.00 kg
Total Mass 305.00 kg
Length 0.20 m
Diameter 2.80 m
Span 9.00 m
Shape Box + pan
Manufacturer SPXS
Bus Type Starlink
Phase Status In Orbit
Owner/State SPXS/US

Most Searched